• MPC Preparation (Info)

  • MPEC 2006-B64 : 2006 BX39

    The following Minor Planet Electronic Circular may be linked-to from your own Web pages, but must not otherwise be redistributed electronically.

    A form allowing access to any MPEC is at the bottom of this page.


    Read MPEC 2006-B63 Read MPEC 2006-B65


    M.P.E.C. 2006-B64                                Issued 2006 Jan. 26, 23:33 UT
    
         The Minor Planet Electronic Circulars contain information on unusual
             minor planets and routine data on comets.  They are published
       on behalf of Commission 20 of the International Astronomical Union by the
              Minor Planet Center, Smithsonian Astrophysical Observatory,
                              Cambridge, MA 02138, U.S.A.
    
                      Supported in part by the Brinson Foundation
                      Supported in part by the TABASGO Foundation
                 Prepared using the Tamkin Foundation Computer Network
    
                                  MPC@CFA.HARVARD.EDU
              URL http://cfa-www.harvard.edu/iau/mpc.html  ISSN 1523-6714
    
                                       2006 BX39
    
    Observations:
         K06B39X* C2006 01 26.33806 09 27 35.99 -05 32 18.3          18.5 R EB064699
         K06B39X  C2006 01 26.38373 09 27 40.64 -05 32 22.4                 EB064699
         K06B39X  C2006 01 26.40658 09 27 43.05 -05 32 23.5                 EB064699
         K06B39X  C2006 01 26.67673 09 28 16.40 -05 31 45.0          18.3 V EB064E12
         K06B39X  C2006 01 26.67794 09 28 16.42 -05 31 44.2          18.8 V EB064E12
         K06B39X  C2006 01 26.67918 09 28 16.61 -05 31 44.8          18.9 V EB064E12
         K06B39X  C2006 01 26.68039 09 28 16.74 -05 31 44.4          19.1 V EB064E12
         K06B39X  C2006 01 26.68440 09 28 17.19 -05 31 45.1          18.9 V EB064E12
         K06B39X  C2006 01 26.68562 09 28 17.36 -05 31 44.7          18.8 V EB064E12
         K06B39X  C2006 01 26.68686 09 28 17.43 -05 31 44.9          18.9 V EB064E12
         K06B39X  C2006 01 26.95448 09 28 53.34 -05 33 03.1                 EB064246
         K06B39X  C2006 01 26.95535 09 28 53.46 -05 33 02.8                 EB064246
         K06B39X  C2006 01 26.95597 09 28 53.53 -05 33 02.7                 EB064246
         K06B39X  C2006 01 26.95706 09 28 53.68 -05 33 02.7                 EB064246
         K06B39X  C2006 01 26.95821 09 28 53.80 -05 33 03.1                 EB064246
         K06B39X  C2006 01 26.95904 09 28 53.88 -05 33 03.5                 EB064246
    
    Observer details:
    246 Klet Observatory-KLENOT.  Observer M. Tichy.  1.06-m KLENOT Telescope
        + CCD.
    699 Lowell Observatory-LONEOS.  Observer B. A. Skiff.  0.59-m LONEOS Schmidt
        + CCD.
    E12 Siding Spring Survey.  Observer R. H. McNaught.  Measurers E. C. Beshore,
        E. J. Christensen, G. J. Garradd, A. D. Grauer, R. E. Hill, R. A. Kowalski,
        S. M. Larson, R. H. McNaught.  0.5-m Uppsala Schmidt + CCD.
    
    Orbital elements:
    2006 BX39                                           PHA, Earth MOID = 0.0083 AU
    Epoch 2006 Mar. 6.0 TT = JDT 2453800.5                  MPC
    M 352.21871              (2000.0)            P               Q
    n   0.36471624     Peri.   80.16528     -0.74220647     +0.65014917
    a   1.9401381      Node   140.11818     -0.66992589     -0.71320368
    e   0.6502932      Incl.   14.68884     -0.01813441     -0.26200490
    P   2.70           H   21.2           G   0.15           U   9
    Residuals in seconds of arc
    060126 699  0.3+  0.5+    060126 E12  0.1-  0.3+    060126 246  0.0   0.3+
    060126 699  0.5-  0.4-    060126 E12  0.1+  0.2-    060126 246  0.3+  0.3+
    060126 699  0.1+  0.1-    060126 E12  0.7+  0.2+    060126 246  0.1+  0.0
    060126 E12  0.7+  0.5-    060126 E12  0.2-  0.1+    060126 246  0.1-  0.4-
    060126 E12  1.0-  0.4+    060126 246  0.3-  0.2-
    060126 E12  0.1-  0.2-    060126 246  0.0   0.1+
    
    Ephemeris:
    2006 BX39                a,e,i = 1.94, 0.65, 15                  q = 0.6785
    Date    TT    R. A. (2000) Decl.     Delta      r     Elong.  Phase     V
    2006 01 25    09 25.12   -05 29.6    0.190    1.156   151.8    23.8    19.0
    2006 01 27    09 28.97   -05 32.4    0.166    1.134   152.7    23.5    18.7
    2006 01 29    09 34.01   -05 31.7    0.141    1.113   153.5    23.2    18.3
    2006 01 31    09 40.95   -05 26.1    0.117    1.092   154.2    23.1    17.8
    2006 02 02    09 51.26   -05 12.4    0.0939   1.071   154.7    23.2    17.3
    2006 02 04    10 08.20   -04 43.3    0.0707   1.050   154.4    23.9    16.7
    2006 02 06    10 40.80   -03 37.4    0.0485   1.029   151.8    27.0    15.9
    2006 02 08    12 01.61   -00 31.3    0.0288   1.008   138.4    40.5    15.1
    2006 02 10    15 36.36   +07 02.8    0.0208   0.987    91.1    87.7    15.9
    2006 02 12    18 31.31   +09 04.9    0.0340   0.967    52.5   125.9    19.1
    2006 02 14    19 32.79   +08 33.6    0.0548   0.946    40.3   137.6    21.3
    
    Timothy B. Spahr             (C) Copyright 2006 MPC           M.P.E.C. 2006-B64
    

    Read MPEC 2006-B63 Read MPEC 2006-B65


    MPEC number:

    Enter an MPEC number in one of the following forms:

    • 1997-B01 (the full form)
    • J97B01 (the packed version of the full form)
    • B01 (the abbreviated form)